Home   Weather   47°46'N, 10°29'E   Past weeks
Flag for Germany

Past Weather in 47°46'N, 10°29'E, Germany — Yesterday and Last 2 Weeks

Now
54 °F

Cool.


Feels Like: 53 °F
Forecast: 60 / 34 °F
Wind: 5 mph from Northeast

Location: Altenstadt Airport

Current Time: Mar 23, 2019 at 7:03:58 pm

Latest Report: Mar 23, 2019 at 6:20 pm


Visibility: N/A

Pressure: 30.30 "Hg

Humidity: 47%

Dew Point: 34 °F

Location of 47°46'N, 10°29'ELocation

Past Weather in 47°46'N, 10°29'E — Graph

°F

47°46'N, 10°29'E Temperature Yesterday

Maximum temperature yesterday: 57 °F (at 3:20 pm)
Minimum temperature yesterday: 27 °F (at 5:20 am)
Average temperature yesterday: 42 °F

High & Low Weather Summary for the Past Weeks

 TemperatureHumidityPressure
High63 °F (Mar 23, 1:20 pm)100% (Mar 13, 6:10 am)30.51 "Hg (Mar 13, 6:10 am)
Low25 °F (Mar 20, 5:20 am)23% (Mar 17, 10:20 am)29.62 "Hg (Mar 14, 5:50 pm)
Average39 °F73%30.08 "Hg
* Reported Mar 8 5:20 pm — Mar 23 5:20 pm, 47°46'N, 10°29'E. Weather by CustomWeather, © 2019

Note: Actual official high and low records may vary slightly from our data, if they occured in-between our weather recording intervals... More about our weather records

Advertising

47°46'N, 10°29'E Weather History for the Previous 24 Hours

Scroll right to see more
 ConditionsComfort  
Time TempWeatherWind HumidityBarometerVisibility
5:20 pm
Sat, Mar 23
59 °FRefreshingly cool.8 mph39%30.30 "HgN/A
4:20 pm61 °FRefreshingly cool.8 mph31%30.30 "HgN/A
3:20 pm63 °FMild.6 mph30%30.30 "HgN/A
2:20 pm61 °FRefreshingly cool.8 mph34%30.30 "HgN/A
1:20 pm63 °FMild.2 mph30%30.30 "HgN/A
12:20 pm61 °FRefreshingly cool.3 mph31%30.33 "HgN/A
11:20 am59 °FRefreshingly cool.5 mph31%30.33 "HgN/A
10:20 am55 °FRefreshingly cool.5 mph38%30.36 "HgN/A
9:20 am48 °FCool.3 mph58%30.36 "HgN/A
8:20 am39 °FChilly.2 mph75%30.36 "HgN/A
7:20 am34 °FChilly.5 mph81%30.36 "HgN/A
6:20 am32 °FChilly.3 mph87%30.36 "HgN/A
5:20 am32 °FChilly.6 mph87%30.33 "HgN/A
4:20 am32 °FChilly.5 mph93%30.33 "HgN/A
3:20 am32 °FChilly.6 mph93%30.33 "HgN/A
2:20 am34 °FChilly.3 mph93%30.36 "HgN/A
1:20 am36 °FChilly.6 mph87%30.36 "HgN/A
12:20 am36 °FChilly.5 mph87%30.36 "HgN/A
11:20 pm
Fri, Mar 22
39 °FChilly.5 mph75%30.36 "HgN/A
10:20 pm41 °FQuite cool.No wind70%30.36 "HgN/A
9:20 pm39 °FChilly.6 mph81%30.36 "HgN/A
8:20 pm43 °FPassing clouds.2 mph71%30.36 "HgN/A
7:20 pm48 °FPassing clouds.1 mph58%30.36 "HgN/A
Weather by CustomWeather, © 2019

See weather overview